Weather History for Point Pelee Cs, ON

Change the Weather History Date:

Friday, February 21, 2014

  Actual Average Record
Temperature  
Mean Temperature 39 °F -  
Max Temperature 45 °F - - ()
Min Temperature 33 °F - - ()
Degree Days  
Heating Degree Days 26    
Moisture  
Dew Point 29 °F    
Average Humidity 73    
Maximum Humidity 94    
Minimum Humidity 54    
Precipitation  
Precipitation 0.00 in - - ()
Sea Level Pressure  
Sea Level Pressure 29.61 in    
Wind  
Wind Speed - ()    
Max Wind Speed -    
Max Gust Speed -    
T = Trace of Precipitation, MM = Missing Value Source: Averaged Metar Reports

Daily Weather History Graph

Daily Weather History Graph

Search for Another Location

Airport:

Trip Planner

Search our weather history database for the weather conditions in past years. The results will help you decide how hot, cold, wet, or windy it might be!

Date:

Astronomy

Feb. 21, 2014 Rise Set
Actual Time 7:17 AM EST 6:10 PM EST
Civil Twilight 6:49 AM EST 6:38 PM EST
Nautical Twilight 6:16 AM EST 7:11 PM EST
Astronomical Twilight 5:44 AM EST 7:43 PM EST
Moon 12:08 AM EST (2/21) 10:34 AM EST (2/21)
Length of Visible Light 11h 49m
Length of Day
10h 53m
Waning Gibbous, 61% of the Moon is Illuminated
Feb 21
Waning Gibbous
Feb 22
Last Quarter
Mar 1
New
Mar 8
First Quarter
Mar 16
Full

Hourly Weather History & Observations

Time (EST) Temp. Dew Point Humidity Pressure Visibility Wind Dir Wind Speed Gust Speed Precip Events Conditions
12:00 AM 43.5 °F 38.8 °F 84% 29.46 in - North - - N/A   Unknown
1:00 AM 45 °F 42 °F 84% 29.44 in - Calm Calm - -  
1:00 AM 45.1 °F 41.7 °F 88% 29.44 in - North - - N/A   Unknown
2:00 AM 41.7 °F 40.1 °F 94% 29.45 in - North - - N/A   Unknown
3:00 AM 36.9 °F 32.2 °F 83% 29.50 in - North - - N/A   Unknown
4:00 AM 35.1 °F 31.5 °F 87% 29.52 in - North - - N/A   Unknown
5:00 AM 35.2 °F 30.2 °F 82% 29.54 in - North - - N/A   Unknown
6:00 AM 35.6 °F 29.7 °F 79% 29.56 in - North - - N/A   Unknown
7:00 AM 36 °F 29 °F 68% 29.56 in - Calm Calm - -  
7:00 AM 35.6 °F 29.3 °F 78% 29.56 in - North - - N/A   Unknown
8:00 AM 35.2 °F 29.1 °F 78% 29.57 in - North - - N/A   Unknown
9:00 AM 36.0 °F 28.8 °F 75% 29.59 in - North - - N/A   Unknown
10:00 AM 37.8 °F 28.0 °F 68% 29.58 in - North - - N/A   Unknown
11:00 AM 36.7 °F 27.3 °F 69% 29.58 in - North - - N/A   Unknown
12:00 PM 36.0 °F 27.9 °F 72% 29.61 in - North - - N/A   Unknown
1:00 PM 38 °F 27 °F 54% 29.60 in - Calm Calm - -  
1:00 PM 37.6 °F 27.3 °F 66% 29.60 in - North - - N/A   Unknown
2:00 PM 35.8 °F 25.7 °F 67% 29.61 in - North - - N/A   Unknown
3:00 PM 35.1 °F 25.3 °F 68% 29.63 in - North - - N/A   Unknown
4:00 PM 35.4 °F 25.3 °F 67% 29.66 in - North - - N/A   Unknown
5:00 PM 35.4 °F 25.5 °F 67% 29.68 in - North - - N/A   Unknown
6:00 PM 34.3 °F 24.4 °F 67% 29.70 in - North - - N/A   Unknown
7:00 PM 34 °F 24 °F 57% 29.73 in - Calm Calm - -  
7:00 PM 34.2 °F 24.4 °F 68% 29.73 in - North - - N/A   Unknown
8:00 PM 34.0 °F 24.8 °F 69% 29.75 in - North - - N/A   Unknown
9:00 PM 33.4 °F 23.9 °F 68% 29.78 in - North - - N/A   Unknown
10:00 PM 33.8 °F 24.6 °F 69% 29.79 in - North - - N/A   Unknown
11:00 PM 35.1 °F 24.8 °F 66% 29.80 in - North - - N/A   Unknown